sat.trackr.live / text

‹ back to catalog

STARLINK-34687

NORAD 64909 · 2025-157F

PAYLOAD ACTIVE UNKNOWN

§ Identity

Operator
Country
US
Launch date
2025-07-26
Launch site
AFETR
Launch vehicle
Mass (kg)
RCS (m²)

Purposes: comms

External: N2YO · Heavens-Above · Gunter

§ Orbital elements

Epoch: 2026-05-24T20:28:44.413248Z

Period
94.10 min
Inclination
53.1599°
Eccentricity
0.0000978
Mean motion
15.30211942 rev/d
Perigee alt
474.5 km
Apogee alt
475.8 km
Semi-major
6,853.3 km
B*
6.6061e-4
RAAN
351.9718°
Arg perigee
85.4183°
Mean anomaly
274.6930°
Rev number
4,773

§ Raw data

STARLINK-346871 64909U 25157F   26144.85329182  .00019264  00000+0  66061-3 0  99962 64909  53.1599 351.9718 0000978  85.4183 274.6930 15.30211942 47739

JSON: /api/v1/satellites/64909 · /tle

For live sub-satellite position, see the globe view (requires WebGL).

§ Visibility from observer

Set your observer location to see the next 7 days of passes ≥ 10°. The values pass through the URL so the page stays shareable.

No JS? Fill the form by hand. The geolocation button needs JavaScript.